Rawlins, WY

4:36 PM MDT on May 25, 2017 (GMT -0600)
Rawlins Municipal

Weather History for KRWL - May, 2014

Change the Weather History Date:

Monday, May 5, 2014

  Actual Average Record
Temperature  
Mean Temperature 52 °F 46 °F  
Max Temperature 74 °F 60 °F 81 °F (2000)
Min Temperature 30 °F 32 °F 16 °F (2010)
Degree Days  
Heating Degree Days 13 19  
Month to date heating degree days 67 98  
Since 1 July heating degree days 7482 7817  
Cooling Degree Days 0 0  
Month to date cooling degree days 0 0  
Year to date cooling degree days 0 0  
Growing Degree Days 2 (Base 50)    
Moisture  
Dew Point 12 °F    
Average Humidity 27    
Maximum Humidity 47    
Minimum Humidity 7    
Precipitation  
Precipitation 0.00 in 0.04 in 0.51 in (1993)
Month to date precipitation 0.00 0.21  
Year to date precipitation 1.64 2.72  
Sea Level Pressure  
Sea Level Pressure 29.66 in    
Wind  
Wind Speed 13 mph (SW)    
Max Wind Speed 33 mph    
Max Gust Speed 46 mph    
Visibility 10 miles    
Events      
T = Trace of Precipitation, MM = Missing Value Source: NWS Daily Summary

Daily Weather History Graph

Daily Weather History Graph

Search for Another Location

Airport or City:

Trip Planner

Search our weather history database for the weather conditions in past years. The results will help you decide how hot, cold, wet, or windy it might be!

Date:

Astronomy

May. 05, 2014 Rise Set
Actual Time 5:59 AM MDT 8:11 PM MDT
Civil Twilight 5:29 AM MDT 8:42 PM MDT
Nautical Twilight 4:51 AM MDT 9:20 PM MDT
Astronomical Twilight 4:09 AM MDT 10:02 PM MDT
Moon 11:22 AM MDT (5/5) 12:57 AM MDT (5/5)
Length of Visible Light 15h 13m
Length of Day
14h 11m
Waxing Crescent, 37% of the Moon is Illuminated
May 5
Waxing Crescent
May 6
First Quarter
May 14
Full
May 21
Last Quarter
May 28
New

Hourly Weather History & Observations

Time (MDT) Temp. Windchill Dew Point Humidity Pressure Visibility Wind Dir Wind Speed Gust Speed Precip Events Conditions
12:53 AM 41.0 °F - 17.1 °F 38% 29.75 in 10.0 mi Calm Calm - N/A   Clear
1:53 AM 41.0 °F - 17.1 °F 38% 29.73 in 10.0 mi Calm Calm - N/A   Clear
2:53 AM 39.9 °F - 18.0 °F 41% 29.72 in 10.0 mi Calm Calm - N/A   Clear
3:53 AM 39.9 °F - 17.1 °F 40% 29.73 in 10.0 mi Calm Calm - N/A   Clear
4:53 AM 35.1 °F - 16.0 °F 46% 29.76 in 10.0 mi Calm Calm - N/A   Clear
5:53 AM 33.1 °F - 16.0 °F 50% 29.77 in 10.0 mi Calm Calm - N/A   Clear
6:53 AM 43.0 °F - 19.0 °F 38% 29.76 in 10.0 mi Calm Calm - N/A   Clear
7:53 AM 53.1 °F - 17.1 °F 24% 29.72 in 10.0 mi SSW 4.6 mph - N/A   Clear
8:53 AM 62.1 °F - 12.0 °F 14% 29.71 in 10.0 mi SW 20.7 mph 26.5 mph N/A   Clear
9:53 AM 64.9 °F - 12.0 °F 13% 29.71 in 10.0 mi WSW 24.2 mph 29.9 mph N/A   Clear
10:53 AM 66.9 °F - 10.0 °F 11% 29.70 in 10.0 mi SW 15.0 mph 29.9 mph N/A   Clear
12:53 PM 71.1 °F - 9.0 °F 9% 29.66 in 10.0 mi SW 18.4 mph 25.3 mph N/A   Clear
1:53 PM 72.0 °F - 10.0 °F 9% 29.62 in 10.0 mi SSW 21.9 mph 34.5 mph N/A   Clear
2:53 PM 72.0 °F - 6.1 °F 8% 29.61 in 10.0 mi SSW 31.1 mph 40.3 mph N/A   Clear
3:53 PM 71.1 °F - 6.1 °F 8% 29.60 in 10.0 mi SW 25.3 mph 38.0 mph N/A   Clear
4:53 PM 72.0 °F - 5.0 °F 7% 29.58 in 10.0 mi SSW 26.5 mph 39.1 mph N/A   Clear
5:53 PM 70.0 °F - 6.1 °F 8% 29.59 in 10.0 mi SSW 28.8 mph 40.3 mph N/A   Clear
6:53 PM 64.9 °F - 8.1 °F 11% 29.57 in 10.0 mi South 23.0 mph 35.7 mph N/A   Clear
7:53 PM 63.0 °F - 7.0 °F 11% 29.55 in 10.0 mi SSW 18.4 mph 27.6 mph N/A   Clear
8:53 PM 60.1 °F - 6.1 °F 12% 29.53 in 10.0 mi SSW 15.0 mph - N/A   Clear
9:20 PM 60.8 °F - 6.8 °F 12% 29.81 in 10.0 mi West 17.3 mph 23.0 mph N/A   Clear
10:53 PM 54.0 °F - 16.0 °F 22% 29.55 in 10.0 mi NNW 9.2 mph - N/A   Scattered Clouds
11:53 PM 45.0 °F 40.6 °F 24.1 °F 44% 29.56 in 10.0 mi NW 8.1 mph - N/A   Partly Cloudy